EW6448 Weather Reports


Display with metric or nautical units.
time (UTC)temp
F
wind
direction
speed
MPH
gust
MPH
rain 1hr
in
rain 24hr
in
rain mn
in
humidity
%
barometer
mb
20260508184510 66 281 0.0 3.0 0.00 0.01 0.01 43 1016.0
20260508183006 66 284 0.0 0.0 0.00 0.01 0.01 40 1016.1
20260508181501 66 277 0.0 1.0 0.00 0.01 0.01 44 1016.3
20260508174615 64 230 0.0 4.0 0.00 0.01 0.01 46 1016.7
20260508173059 64 284 0.0 0.0 0.00 0.01 0.01 45 1017.1
20260508171607 64 284 0.0 0.0 0.00 0.01 0.01 45 1017.3
20260508170041 63 284 0.0 1.0 0.00 0.01 0.01 50 1017.6
20260508164538 62 283 0.0 2.0 0.00 0.02 0.01 51 1018.0
20260508163034 61 277 0.0 0.0 0.00 0.02 0.01 49 1018.2
20260508161538 61 282 0.0 3.0 0.00 0.02 0.01 50 1018.5
20260508160030 60 261 0.0 0.0 0.00 0.02 0.01 52 1018.8
20260508154518 60 261 0.0 0.0 0.00 0.02 0.01 57 1019.0
20260508153014 58 262 0.0 0.0 0.00 0.02 0.01 61 1019.1
20260508151519 57 292 0.0 0.0 0.00 0.02 0.01 63 1019.3
20260508150009 56 292 0.0 0.0 0.00 0.02 0.01 58 1019.5
20260508144601 55 292 0.0 3.0 0.00 0.02 0.01 40 1019.5
20260508143059 54 293 0.0 1.0 0.00 0.02 0.01 19 1019.6
20260508141552 53 293 0.0 0.0 0.00 0.02 0.01 1 1019.6
20260508140048 50 293 0.0 0.0 0.00 0.02 0.01 1 1019.8
20260508134542 48 293 0.0 0.0 0.00 0.03 0.01 1 1019.9
20260508133058 47 293 0.0 0.0 0.00 0.03 0.01 1 1020.0
20260508131536 47 293 0.0 0.0 0.00 0.03 0.01 1 1019.9
20260508130029 46 293 0.0 0.0 0.00 0.03 0.01 1 1019.7
20260508124531 46 293 0.0 0.0 0.00 0.03 0.01 1 1019.8
20260508123020 46 293 0.0 0.0 0.00 0.03 0.01 1 1019.5
20260508121514 46 293 0.0 0.0 0.00 0.03 0.01 1 1019.5
20260508120011 45 293 0.0 0.0 0.00 0.03 0.01 1 1019.3
20260508114505 46 293 0.0 0.0 0.00 0.04 0.01 1 1019.1
20260508113002 46 293 0.0 0.0 0.00 0.04 0.01 1 1018.8
20260508111602 46 293 0.0 0.0 0.00 0.04 0.01 1 1018.5
20260508110059 46 293 0.0 0.0 0.00 0.04 0.01 1 1018.4
20260508104551 46 293 0.0 0.0 0.00 0.04 0.01 1 1018.2
20260508103044 46 293 0.0 0.0 0.00 0.04 0.01 1 1018.0
20260508101545 46 293 0.0 0.0 0.00 0.04 0.01 1 1017.7
20260508100035 46 293 0.0 0.0 0.00 0.04 0.01 1 1017.6
20260508094530 46 293 0.0 0.0 0.00 0.05 0.01 1 1017.5
20260508093027 46 293 0.0 0.0 0.01 0.05 0.01 1 1017.6
20260508091534 46 293 0.0 0.0 0.01 0.05 0.01 1 1017.5
20260508090018 46 293 0.0 0.0 0.01 0.05 0.01 1 1017.3
20260508084513 46 293 0.0 0.0 0.01 0.05 0.01 1 1017.1
20260508083020 47 293 0.0 0.0 0.00 0.04 0.00 1 1017.2
20260508081508 47 293 0.0 0.0 0.00 0.04 0.00 1 1017.2
20260508080100 47 293 0.0 0.0 0.00 0.04 0.00 1 1017.1
20260508074555 47 293 0.0 0.0 0.00 0.05 0.00 1 1017.1
20260508073052 47 293 0.0 0.0 0.00 0.05 0.00 1 1017.3
20260508071550 48 293 0.0 0.0 0.00 0.05 0.00 1 1017.1
20260508070042 48 292 0.0 0.0 0.00 0.05 0.00 1 1017.0
20260508064540 48 293 0.0 0.0 0.00 0.05 0.00 1 1017.3
20260508063100 48 293 0.0 0.0 0.00 0.05 0.00 1 1017.3
20260508061530 48 293 0.0 0.0 0.00 0.05 0.00 1 1017.2
20260508060028 48 293 0.0 0.0 0.00 0.05 0.00 1 1017.3
20260508054520 48 293 0.0 0.0 0.00 0.05 0.00 1 1017.3
20260508053015 48 293 0.0 0.0 0.00 0.05 0.00 1 1017.2
20260508051511 48 293 0.0 0.0 0.00 0.05 0.00 1 1017.2
20260508050007 48 293 0.0 0.0 0.00 0.05 0.00 1 1017.0
20260508044502 49 293 0.0 0.0 0.00 0.06 0.00 1 1016.8
20260508043057 49 293 0.0 0.0 0.00 0.06 0.00 1 1016.6
20260508041553 49 293 0.0 0.0 0.00 0.06 0.00 1 1016.6
20260508040048 50 293 0.0 0.0 0.00 0.06 0.00 1 1016.4
20260508034544 50 293 0.0 0.0 0.00 0.08 0.06 1 1016.2
20260508033047 50 293 0.0 0.0 0.00 0.08 0.06 1 1016.3
20260508031538 50 293 0.0 0.0 0.00 0.08 0.06 1 1016.4
20260508030031 50 293 0.0 0.0 0.00 0.08 0.06 1 1016.2
20260508024526 50 292 0.0 0.0 0.00 0.11 0.06 1 1015.8
20260508023023 51 293 0.0 0.0 0.00 0.11 0.06 1 1015.6
20260508021527 51 293 0.0 0.0 0.00 0.11 0.06 1 1015.5
20260508020012 51 293 0.0 0.0 0.00 0.11 0.06 1 1015.4
20260508014512 52 293 0.0 0.0 0.00 0.15 0.06 1 1015.0
20260508013003 52 293 0.0 0.0 0.00 0.15 0.06 1 1014.8
20260508011600 53 293 0.0 0.0 0.00 0.15 0.06 2 1014.6
20260508004550 55 293 0.0 0.0 0.00 0.16 0.06 17 1014.1
20260508003046 57 293 0.0 0.0 0.00 0.16 0.06 40 1013.8
20260508001544 58 293 0.0 0.0 0.00 0.16 0.06 48 1013.7
20260508000044 59 293 0.0 0.0 0.00 0.16 0.06 51 1013.9
20260507234533 58 293 0.0 0.0 0.00 0.16 0.06 49 1013.9
20260507233035 58 293 0.0 0.0 0.00 0.16 0.06 50 1013.8
20260507231523 59 293 0.0 0.0 0.00 0.16 0.06 50 1014.0
20260507230030 59 293 0.0 0.0 0.00 0.16 0.06 54 1013.9
20260507224514 59 293 0.0 0.0 0.00 0.16 0.06 51 1013.9
20260507223010 59 293 0.0 0.0 0.00 0.16 0.06 50 1013.9
20260507221506 59 293 0.0 0.0 0.00 0.16 0.06 50 1013.7
20260507220001 60 293 0.0 0.0 0.00 0.16 0.06 56 1013.6
20260507214600 60 293 0.0 0.0 0.00 0.16 0.06 53 1013.5
20260507213121 58 293 0.0 0.0 0.00 0.16 0.06 35 1013.4
20260507211549 57 293 0.0 0.0 0.00 0.16 0.06 27 1013.5
20260507210048 56 293 0.0 0.0 0.00 0.16 0.06 16 1013.2
20260507204542 55 293 0.0 0.0 0.00 0.16 0.06 13 1013.2
20260507203038 55 293 0.0 0.0 0.00 0.16 0.06 27 1013.4
20260507201530 55 293 0.0 0.0 0.00 0.16 0.06 30 1013.5
20260507200047 55 293 0.0 0.0 0.00 0.16 0.06 18 1013.4
20260507194521 55 293 0.0 0.0 0.00 0.16 0.06 30 1013.4
20260507193037 55 292 0.0 0.0 0.00 0.16 0.06 21 1013.2
20260507191512 54 292 0.0 0.0 0.00 0.16 0.06 17 1013.5
20260507190007 54 292 0.0 0.0 0.00 0.16 0.06 12 1013.5